TimeMDT,TemperatureF,Dew PointF,Humidity,Sea Level PressureIn,VisibilityMPH,Wind Direction,Wind SpeedMPH,Gust SpeedMPH,PrecipitationIn,Events,Conditions,WindDirDegrees,DateUTC
12:00 AM,44.6,-9999,N/A,29.94,10.0,SSW,9.2,-,N/A,,Clear,210,2012-10-03 06:00:00
12:20 AM,48.2,-9999,N/A,29.94,10.0,SW,10.4,-,N/A,,Clear,220,2012-10-03 06:20:00
12:40 AM,48.2,-9999,N/A,29.94,10.0,SW,11.5,-,N/A,,Clear,220,2012-10-03 06:40:00
1:00 AM,48.2,-9999,N/A,29.93,10.0,SW,9.2,-,N/A,,Clear,230,2012-10-03 07:00:00
1:20 AM,46.4,-9999,N/A,29.93,10.0,SW,10.4,-,N/A,,Clear,220,2012-10-03 07:20:00
1:40 AM,44.6,-9999,N/A,29.94,10.0,SW,10.4,-,N/A,,Clear,230,2012-10-03 07:40:00
2:00 AM,44.6,-9999,N/A,29.94,10.0,WSW,5.8,-,N/A,,Clear,240,2012-10-03 08:00:00
2:20 AM,46.4,-9999,N/A,29.95,10.0,SW,8.1,-,N/A,,Clear,230,2012-10-03 08:20:00
2:40 AM,46.4,-9999,N/A,29.95,10.0,SSW,10.4,-,N/A,,Clear,210,2012-10-03 08:40:00
3:00 AM,44.6,-9999,N/A,29.95,10.0,SW,5.8,-,N/A,,Clear,220,2012-10-03 09:00:00
3:20 AM,42.8,-9999,N/A,29.96,10.0,SSW,10.4,-,N/A,,Clear,200,2012-10-03 09:20:00
3:40 AM,41.0,-9999,N/A,29.96,10.0,WSW,5.8,-,N/A,,Clear,240,2012-10-03 09:40:00
4:00 AM,37.4,-9999,N/A,29.95,10.0,Calm,Calm,-,N/A,,Clear,0,2012-10-03 10:00:00
4:40 AM,32.0,-9999,N/A,29.96,10.0,Calm,Calm,-,N/A,,Clear,0,2012-10-03 10:40:00
5:00 AM,32.0,-9999,N/A,29.96,10.0,Calm,Calm,-,N/A,,Clear,0,2012-10-03 11:00:00
5:20 AM,32.0,-9999,N/A,29.98,10.0,NW,4.6,-,N/A,,Clear,310,2012-10-03 11:20:00
5:40 AM,30.2,-9999,N/A,29.97,10.0,Calm,Calm,-,N/A,,Clear,0,2012-10-03 11:40:00
6:00 AM,28.4,-9999,N/A,29.98,10.0,NNE,3.5,-,N/A,,Clear,20,2012-10-03 12:00:00
6:20 AM,28.4,-9999,N/A,29.99,10.0,Calm,Calm,-,N/A,,Clear,0,2012-10-03 12:20:00
6:40 AM,30.2,-9999,N/A,30.00,10.0,WSW,5.8,-,N/A,,Clear,250,2012-10-03 12:40:00
7:00 AM,32.0,-9999,N/A,30.02,10.0,North,5.8,-,N/A,,Clear,350,2012-10-03 13:00:00
7:20 AM,28.4,-9999,N/A,30.03,10.0,WSW,4.6,-,N/A,,Clear,240,2012-10-03 13:20:00
7:40 AM,32.0,-9999,N/A,30.04,10.0,NNE,3.5,-,N/A,,Clear,30,2012-10-03 13:40:00
8:00 AM,30.2,-9999,N/A,30.05,10.0,ENE,3.5,-,N/A,,Clear,60,2012-10-03 14:00:00
8:20 AM,32.0,-9999,N/A,30.07,10.0,NNE,4.6,-,N/A,,Clear,30,2012-10-03 14:20:00
8:40 AM,35.6,-9999,N/A,30.09,10.0,North,3.5,-,N/A,,Clear,360,2012-10-03 14:40:00
9:00 AM,37.4,-9999,N/A,30.10,10.0,NNW,8.1,21.9,N/A,,Scattered Clouds,340,2012-10-03 15:00:00
9:15 AM,39.2,-9999,N/A,30.11,10.0,NW,15.0,23.0,N/A,,Partly Cloudy,320,2012-10-03 15:15:00
9:40 AM,41.0,-9999,N/A,30.13,10.0,North,13.8,20.7,N/A,,Mostly Cloudy,360,2012-10-03 15:40:00
10:00 AM,41.0,-9999,N/A,30.15,10.0,NNW,11.5,19.6,N/A,,Mostly Cloudy,330,2012-10-03 16:00:00
10:20 AM,39.2,-9999,N/A,30.16,10.0,NNW,11.5,20.7,N/A,,Partly Cloudy,330,2012-10-03 16:20:00
10:40 AM,41.0,-9999,N/A,30.17,10.0,North,12.7,18.4,N/A,,Clear,350,2012-10-03 16:40:00
11:00 AM,41.0,-9999,N/A,30.18,10.0,NNW,10.4,20.7,N/A,,Clear,340,2012-10-03 17:00:00
11:20 AM,39.2,-9999,N/A,30.20,10.0,North,17.3,24.2,N/A,,Clear,360,2012-10-03 17:20:00
11:40 AM,39.2,-9999,N/A,30.22,10.0,North,15.0,25.3,N/A,,Partly Cloudy,360,2012-10-03 17:40:00
12:00 PM,41.0,-9999,N/A,30.22,10.0,North,15.0,20.7,N/A,,Scattered Clouds,350,2012-10-03 18:00:00
12:20 PM,39.2,-9999,N/A,30.23,10.0,NNW,10.4,23.0,N/A,,Scattered Clouds,340,2012-10-03 18:20:00
12:40 PM,41.0,-9999,N/A,30.24,10.0,NNE,12.7,24.2,N/A,,Mostly Cloudy,30,2012-10-03 18:40:00
1:00 PM,41.0,-9999,N/A,30.24,10.0,NE,13.8,24.2,N/A,,Overcast,50,2012-10-03 19:00:00
1:20 PM,41.0,-9999,N/A,30.25,10.0,NNE,12.7,23.0,N/A,,Scattered Clouds,20,2012-10-03 19:20:00
1:40 PM,39.2,-9999,N/A,30.25,10.0,NNE,18.4,26.5,N/A,,Mostly Cloudy,20,2012-10-03 19:40:00
2:00 PM,39.2,-9999,N/A,30.26,10.0,NNE,13.8,27.6,N/A,,Mostly Cloudy,30,2012-10-03 20:00:00
2:20 PM,39.2,-9999,N/A,30.25,10.0,NNE,13.8,21.9,N/A,,Mostly Cloudy,20,2012-10-03 20:20:00
2:40 PM,41.0,-9999,N/A,30.26,10.0,NNE,12.7,20.7,N/A,,Partly Cloudy,20,2012-10-03 20:40:00
3:00 PM,42.8,-9999,N/A,30.26,10.0,NNE,13.8,23.0,N/A,,Clear,20,2012-10-03 21:00:00
3:20 PM,41.0,-9999,N/A,30.27,10.0,North,12.7,19.6,N/A,,Clear,360,2012-10-03 21:20:00
3:40 PM,41.0,-9999,N/A,30.28,10.0,NNE,13.8,17.3,N/A,,Clear,20,2012-10-03 21:40:00
4:00 PM,41.0,-9999,N/A,30.29,10.0,North,12.7,19.6,N/A,,Clear,360,2012-10-03 22:00:00
4:20 PM,41.0,-9999,N/A,30.29,10.0,North,9.2,20.7,N/A,,Clear,350,2012-10-03 22:20:00
4:40 PM,41.0,-9999,N/A,30.29,10.0,North,12.7,18.4,N/A,,Clear,10,2012-10-03 22:40:00
5:00 PM,41.0,-9999,N/A,30.30,10.0,North,11.5,17.3,N/A,,Clear,360,2012-10-03 23:00:00
5:20 PM,41.0,-9999,N/A,30.30,10.0,North,13.8,21.9,N/A,,Clear,10,2012-10-03 23:20:00
5:40 PM,39.2,-9999,N/A,30.31,10.0,North,12.7,18.4,N/A,,Clear,10,2012-10-03 23:40:00
6:00 PM,39.2,-9999,N/A,30.31,10.0,NNE,11.5,20.7,N/A,,Clear,20,2012-10-04 00:00:00
6:20 PM,37.4,-9999,N/A,30.31,10.0,NNE,13.8,21.9,N/A,,Clear,30,2012-10-04 00:20:00
6:40 PM,35.6,-9999,N/A,30.32,10.0,NNE,15.0,20.7,N/A,,Clear,30,2012-10-04 00:40:00
7:00 PM,35.6,-9999,N/A,30.32,10.0,NNE,9.2,16.1,N/A,,Clear,20,2012-10-04 01:00:00
7:20 PM,33.8,-9999,N/A,30.32,10.0,NNE,10.4,19.6,N/A,,Clear,20,2012-10-04 01:20:00
7:40 PM,32.0,-9999,N/A,30.33,10.0,NNE,9.2,-,N/A,,Clear,30,2012-10-04 01:40:00
8:20 PM,32.0,-9999,N/A,30.33,10.0,NNE,11.5,17.3,N/A,,Clear,30,2012-10-04 02:20:00
8:40 PM,32.0,-9999,N/A,30.33,10.0,NNE,9.2,-,N/A,,Clear,30,2012-10-04 02:40:00
9:00 PM,32.0,-9999,N/A,30.33,10.0,NNE,8.1,-,N/A,,Clear,20,2012-10-04 03:00:00
9:20 PM,32.0,-9999,N/A,30.34,10.0,NNE,9.2,-,N/A,,Clear,30,2012-10-04 03:20:00
9:40 PM,30.2,-9999,N/A,30.33,10.0,NNE,9.2,-,N/A,,Clear,30,2012-10-04 03:40:00
10:00 PM,30.2,-9999,N/A,30.33,10.0,NNE,5.8,-,N/A,,Clear,20,2012-10-04 04:00:00
10:20 PM,28.4,-9999,N/A,30.34,10.0,East,3.5,-,N/A,,Clear,90,2012-10-04 04:20:00
10:40 PM,26.6,-9999,N/A,30.34,10.0,North,5.8,-,N/A,,Clear,360,2012-10-04 04:40:00
11:00 PM,28.4,-9999,N/A,30.34,10.0,NNE,4.6,-,N/A,,Clear,30,2012-10-04 05:00:00
11:20 PM,26.6,-9999,N/A,30.34,10.0,ENE,3.5,-,N/A,,Clear,60,2012-10-04 05:20:00
11:40 PM,26.6,-9999,N/A,30.33,10.0,NE,4.6,-,N/A,,Clear,50,2012-10-04 05:40:00